TimePST,TemperatureF,Dew PointF,Humidity,Sea Level PressureIn,VisibilityMPH,Wind Direction,Wind SpeedMPH,Gust SpeedMPH,PrecipitationIn,Events,Conditions,WindDirDegrees,DateUTC
12:15 AM,44.6,41.0,87,30.26,10.0,SE,3.5,-,N/A,,Overcast,140,2011-11-08 08:15:00
12:35 AM,44.6,41.0,87,30.26,10.0,ESE,4.6,-,N/A,,Overcast,120,2011-11-08 08:35:00
1:15 AM,44.6,41.0,87,30.26,10.0,ESE,3.5,-,N/A,,Overcast,120,2011-11-08 09:15:00
1:35 AM,42.8,39.2,87,30.27,10.0,Calm,Calm,-,N/A,,Mostly Cloudy,0,2011-11-08 09:35:00
2:15 AM,42.8,41.0,93,30.27,9.0,Calm,Calm,-,N/A,,Overcast,0,2011-11-08 10:15:00
2:35 AM,44.6,41.0,87,30.27,9.0,Calm,Calm,-,N/A,,Overcast,0,2011-11-08 10:35:00
2:55 AM,44.6,41.0,87,30.26,10.0,Calm,Calm,-,N/A,,Overcast,0,2011-11-08 10:55:00
3:15 AM,44.6,41.0,87,30.26,10.0,Calm,Calm,-,N/A,,Overcast,0,2011-11-08 11:15:00
3:55 AM,44.6,42.8,93,30.25,8.0,Calm,Calm,-,N/A,,Overcast,0,2011-11-08 11:55:00
4:15 AM,44.6,42.8,93,30.25,10.0,Calm,Calm,-,N/A,,Overcast,0,2011-11-08 12:15:00
4:35 AM,44.6,42.8,93,30.25,10.0,Calm,Calm,-,N/A,,Overcast,0,2011-11-08 12:35:00
4:55 AM,46.4,42.8,87,30.25,10.0,Calm,Calm,-,N/A,,Overcast,0,2011-11-08 12:55:00
5:15 AM,44.6,42.8,93,30.25,10.0,Calm,Calm,-,N/A,,Overcast,0,2011-11-08 13:15:00
5:35 AM,44.6,42.8,93,30.26,10.0,ESE,3.5,-,N/A,,Overcast,120,2011-11-08 13:35:00
6:15 AM,44.6,42.8,93,30.25,10.0,SSE,3.5,-,N/A,,Overcast,150,2011-11-08 14:15:00
6:35 AM,46.4,42.8,87,30.24,10.0,SE,4.6,-,N/A,,Overcast,140,2011-11-08 14:35:00
6:55 AM,46.4,42.8,87,30.24,10.0,SE,3.5,-,N/A,,Overcast,130,2011-11-08 14:55:00
7:15 AM,44.6,41.0,87,30.24,10.0,SE,3.5,-,N/A,,Overcast,130,2011-11-08 15:15:00
7:35 AM,44.6,41.0,87,30.25,10.0,SSE,3.5,-,N/A,,Mostly Cloudy,160,2011-11-08 15:35:00
7:55 AM,44.6,41.0,87,30.25,10.0,SE,4.6,-,N/A,,Partly Cloudy,140,2011-11-08 15:55:00
8:15 AM,46.4,42.8,87,30.25,10.0,SE,3.5,-,N/A,,Partly Cloudy,130,2011-11-08 16:15:00
8:35 AM,46.4,42.8,87,30.25,10.0,SSE,6.9,-,N/A,,Mostly Cloudy,160,2011-11-08 16:35:00
8:55 AM,46.4,42.8,87,30.26,10.0,SSE,8.1,-,N/A,,Overcast,160,2011-11-08 16:55:00
9:15 AM,46.4,42.8,87,30.25,10.0,SSE,6.9,-,N/A,,Overcast,150,2011-11-08 17:15:00
9:35 AM,48.2,42.8,82,30.25,10.0,SSE,9.2,-,N/A,,Scattered Clouds,150,2011-11-08 17:35:00
9:55 AM,48.2,42.8,82,30.26,10.0,SSE,9.2,-,N/A,,Scattered Clouds,150,2011-11-08 17:55:00
10:15 AM,48.2,42.8,82,30.26,10.0,SSE,11.5,-,N/A,,Clear,150,2011-11-08 18:15:00
10:35 AM,50.0,42.8,76,30.26,10.0,SSE,9.2,-,N/A,,Clear,160,2011-11-08 18:35:00
10:55 AM,50.0,42.8,76,30.26,10.0,South,8.1,-,N/A,,Clear,170,2011-11-08 18:55:00
11:15 AM,51.8,42.8,71,30.26,10.0,SSE,9.2,-,N/A,,Clear,160,2011-11-08 19:15:00
11:35 AM,51.8,41.0,67,30.26,10.0,South,11.5,-,N/A,,Clear,170,2011-11-08 19:35:00
12:15 PM,51.8,42.8,71,30.24,10.0,SSE,6.9,-,N/A,,Clear,160,2011-11-08 20:15:00
12:35 PM,53.6,42.8,67,30.23,10.0,SSE,6.9,-,N/A,,Clear,160,2011-11-08 20:35:00
12:55 PM,53.6,42.8,67,30.23,10.0,South,10.4,-,N/A,,Clear,180,2011-11-08 20:55:00
1:15 PM,53.6,41.0,62,30.22,10.0,South,10.4,-,N/A,,Clear,180,2011-11-08 21:15:00
1:35 PM,53.6,41.0,62,30.22,10.0,South,11.5,-,N/A,,Scattered Clouds,180,2011-11-08 21:35:00
1:55 PM,53.6,42.8,67,30.22,10.0,South,9.2,-,N/A,,Scattered Clouds,180,2011-11-08 21:55:00
2:15 PM,53.6,42.8,67,30.22,10.0,South,6.9,-,N/A,,Clear,180,2011-11-08 22:15:00
2:35 PM,53.6,42.8,67,30.22,10.0,South,8.1,-,N/A,,Mostly Cloudy,180,2011-11-08 22:35:00
2:55 PM,53.6,42.8,67,30.21,10.0,SSE,5.8,-,N/A,,Overcast,160,2011-11-08 22:55:00
3:15 PM,53.6,42.8,67,30.22,10.0,South,5.8,-,N/A,,Overcast,180,2011-11-08 23:15:00
3:35 PM,53.6,42.8,67,30.21,10.0,South,5.8,-,N/A,,Overcast,180,2011-11-08 23:35:00
3:55 PM,51.8,42.8,71,30.21,10.0,South,4.6,-,N/A,,Overcast,170,2011-11-08 23:55:00
4:15 PM,51.8,42.8,71,30.21,10.0,SSE,4.6,-,N/A,,Overcast,160,2011-11-09 00:15:00
4:35 PM,51.8,42.8,71,30.21,10.0,SSE,4.6,-,N/A,,Overcast,160,2011-11-09 00:35:00
4:55 PM,51.8,42.8,71,30.20,1.0,Calm,Calm,-,N/A,,Overcast,0,2011-11-09 00:55:00
5:15 PM,48.2,41.0,76,30.20,10.0,Calm,Calm,-,N/A,,Overcast,0,2011-11-09 01:15:00
5:35 PM,48.2,41.0,76,30.21,10.0,Calm,Calm,-,N/A,,Overcast,0,2011-11-09 01:35:00
5:55 PM,50.0,41.0,71,30.21,10.0,South,3.5,-,N/A,,Overcast,180,2011-11-09 01:55:00
6:15 PM,51.8,42.8,71,30.22,10.0,SSE,4.6,-,N/A,,Overcast,150,2011-11-09 02:15:00
6:35 PM,50.0,42.8,76,30.21,10.0,SE,6.9,16.1,N/A,,Overcast,140,2011-11-09 02:35:00
6:55 PM,50.0,41.0,71,30.22,10.0,SSE,6.9,-,N/A,,Overcast,150,2011-11-09 02:55:00
7:15 PM,50.0,41.0,71,30.22,10.0,SSE,10.4,-,N/A,,Overcast,150,2011-11-09 03:15:00
7:35 PM,48.2,41.0,76,30.22,10.0,SE,10.4,16.1,N/A,,Overcast,140,2011-11-09 03:35:00
7:55 PM,48.2,41.0,76,30.22,10.0,SE,8.1,-,N/A,,Overcast,140,2011-11-09 03:55:00
8:15 PM,48.2,42.8,82,30.22,10.0,SSE,9.2,-,N/A,,Overcast,150,2011-11-09 04:15:00
8:35 PM,48.2,42.8,82,30.23,10.0,SSE,9.2,-,N/A,,Overcast,150,2011-11-09 04:35:00
8:55 PM,48.2,42.8,82,30.23,10.0,SSE,11.5,-,N/A,,Overcast,150,2011-11-09 04:55:00
9:15 PM,48.2,42.8,82,30.24,10.0,SSE,8.1,-,N/A,,Overcast,160,2011-11-09 05:15:00
9:35 PM,48.2,42.8,82,30.23,10.0,SE,6.9,-,N/A,,Overcast,140,2011-11-09 05:35:00
9:55 PM,48.2,42.8,82,30.24,10.0,SE,5.8,-,N/A,,Overcast,140,2011-11-09 05:55:00
10:15 PM,48.2,42.8,82,30.24,8.0,SE,5.8,-,N/A,,Overcast,140,2011-11-09 06:15:00
10:35 PM,48.2,42.8,82,30.24,10.0,SE,4.6,-,N/A,,Overcast,140,2011-11-09 06:35:00
10:55 PM,48.2,42.8,82,30.23,10.0,SE,4.6,-,N/A,,Overcast,130,2011-11-09 06:55:00
11:15 PM,48.2,42.8,82,30.23,10.0,SSE,4.6,-,N/A,,Overcast,150,2011-11-09 07:15:00
11:35 PM,48.2,42.8,82,30.23,10.0,SSE,5.8,-,N/A,,Overcast,150,2011-11-09 07:35:00
11:55 PM,48.2,42.8,82,30.23,10.0,SSE,5.8,-,N/A,,Overcast,150,2011-11-09 07:55:00